{"data":{"norad_id":60528,"epoch":"2026-09-22T17:49:54.742944Z","epoch_age_seconds":95260,"freshness":"FRESH","line1":"1 60528U 24149BN  26265.74299471  .00010092  00000+0  24312-3 0  9991","line2":"2 60528  97.3767 350.3247 0004417 311.1508  48.9357 15.41444304117297","mean_motion":15.41444304,"eccentricity":0.0004417,"inclination_deg":97.3767,"raan_deg":350.3247,"arg_perigee_deg":311.1508,"mean_anomaly_deg":48.9357,"bstar":0.00024312,"rev_number":11729,"period_min":93.418879700242,"perigee_km":438.83347289628,"apogee_km":444.8582457542,"semimajor_km":6819.9828593252,"source":"CELESTRAK","updated_at":"2026-09-23T09:00:20.667754Z"}}